W1TG-2 Weather Reports


time (UTC)temp
C
wind
direction
speed
KPH
gust
KPH
rain 1hr
cm
rain 24hr
cm
rain mn
cm
humidity
%
barometer
mb
20260507085403 8 191 0.0 3.2 0.03 0.91 0.05 93 1006.1
20260507084803 9 0 0.0 0.0 0.03 0.91 0.05 92 1006.3
20260507084204 9 191 0.0 1.6 0.03 0.91 0.05 92 1006.1
20260507083604 9 191 0.0 6.4 0.03 0.91 0.05 92 1005.8
20260507083004 9 190 0.0 3.2 0.05 0.91 0.05 92 1006.1
20260507082403 9 191 0.0 3.2 0.05 0.91 0.05 91 1005.9
20260507081804 9 191 0.0 3.2 0.05 0.91 0.05 91 1005.8
20260507081203 10 191 0.0 4.8 0.05 0.91 0.05 90 1005.7
20260507080603 10 190 0.0 8.0 0.03 0.89 0.03 89 1005.8
20260507080004 10 191 0.0 4.8 0.03 0.89 0.03 89 1005.9
20260507075404 10 191 0.0 4.8 0.03 0.89 0.03 89 1006.0
20260507074803 10 191 0.0 3.2 0.03 0.89 0.03 89 1006.0
20260507074203 10 191 0.0 8.0 0.03 0.89 0.03 89 1005.5
20260507073604 10 191 0.0 8.0 0.03 0.89 0.03 88 1005.6
20260507073004 10 191 0.0 8.0 0.00 0.86 0.00 89 1005.2
20260507072403 10 191 0.0 4.8 0.00 0.86 0.00 89 1005.4
20260507071803 10 191 0.0 4.8 0.00 0.86 0.00 90 1005.5
20260507071204 10 191 0.0 4.8 0.00 0.86 0.00 90 1005.6
20260507070603 10 191 0.0 8.0 0.00 0.86 0.00 91 1005.4
20260507070006 11 191 0.0 9.7 0.00 0.86 0.00 91 1005.4
20260507065404 11 191 0.0 9.7 0.00 0.86 0.00 91 1005.3
20260507064804 11 191 0.0 3.2 0.00 0.86 0.00 91 1005.3
20260507064203 11 191 0.0 3.2 0.00 0.86 0.00 91 1005.1
20260507063603 11 191 0.0 1.6 0.00 0.86 0.00 91 1005.0
20260507063004 11 191 0.0 1.6 0.00 0.86 0.00 90 1005.0
20260507062403 11 190 0.0 8.0 0.00 0.86 0.00 90 1005.2
20260507061803 11 191 0.0 4.8 0.00 0.86 0.00 89 1005.1
20260507061204 11 191 0.0 6.4 0.00 0.86 0.00 90 1005.2
20260507060604 11 191 0.0 6.4 0.00 0.86 0.00 89 1005.4
20260507060003 11 191 0.0 9.7 0.00 0.86 0.00 89 1005.2
20260507055403 11 191 0.0 9.7 0.00 0.86 0.00 89 1005.4
20260507054804 11 189 0.0 9.7 0.00 0.86 0.00 90 1005.4
20260507054203 11 189 0.0 9.7 0.00 0.86 0.00 90 1005.4
20260507053603 11 188 0.0 8.0 0.00 0.86 0.00 90 1005.4
20260507053004 11 188 0.0 9.7 0.00 0.86 0.00 91 1005.5
20260507052404 11 188 0.0 6.4 0.00 0.86 0.00 91 1005.5
20260507051803 11 188 0.0 6.4 0.00 0.86 0.00 91 1005.4
20260507051203 11 186 1.6 9.7 0.00 0.86 0.00 91 1005.5
20260507050604 11 185 0.0 8.0 0.00 0.86 0.00 92 1005.4
20260507050003 11 184 0.0 4.8 0.00 0.86 0.00 93 1005.4
20260507045403 11 185 0.0 4.8 0.00 0.86 0.00 93 1005.1
20260507044803 12 185 0.0 8.0 0.00 0.86 0.00 93 1005.1
20260507044204 12 184 0.0 8.0 0.00 0.86 0.00 94 1005.2
20260507043603 12 185 0.0 8.0 0.00 0.86 0.00 94 1005.4
20260507043003 12 184 0.0 9.7 0.00 0.86 0.00 94 1005.4
20260507042403 12 185 0.0 4.8 0.00 0.86 0.00 95 1005.4
20260507041804 12 184 0.0 8.0 0.00 0.86 0.00 95 1005.5
20260507041203 13 184 0.0 9.7 0.00 0.86 0.00 96 1005.3
20260507040603 13 184 0.0 4.8 0.00 0.86 0.00 96 1005.1
20260507040004 13 184 0.0 1.6 0.00 0.86 0.00 97 1005.0
20260507035404 13 184 0.0 4.8 0.00 0.86 0.86 97 1004.9
20260507034803 13 184 0.0 3.2 0.00 0.86 0.86 97 1004.7
20260507034203 13 184 0.0 4.8 0.00 0.86 0.86 97 1004.7
20260507033604 14 185 0.0 8.0 0.00 0.86 0.86 97 1004.7
20260507033004 15 185 0.0 8.0 0.00 0.86 0.86 96 1004.5
20260507032403 15 184 0.0 8.0 0.00 0.86 0.86 97 1004.4
20260507031803 15 184 0.0 3.2 0.00 0.86 0.86 97 1004.3
20260507031204 15 184 0.0 1.6 0.00 0.86 0.86 97 1004.3
20260507030603 15 184 1.6 11.3 0.00 0.86 0.86 97 1004.2
20260507030003 15 184 0.0 11.3 0.00 0.86 0.86 97 1004.2
20260507025404 15 184 0.0 6.4 0.00 0.86 0.86 97 1004.2
20260507024804 15 185 0.0 8.0 0.00 0.86 0.86 97 1004.3
20260507024203 15 184 1.6 8.0 0.00 0.86 0.86 97 1004.3
20260507023603 15 185 1.6 12.9 0.00 0.86 0.86 97 1004.1
20260507023004 15 184 0.0 12.9 0.00 0.86 0.86 97 1004.3
20260507022404 15 184 0.0 4.8 0.00 0.86 0.86 97 1004.3
20260507021803 15 184 0.0 9.7 0.00 0.86 0.86 97 1004.1
20260507021203 15 184 1.6 9.7 0.00 0.86 0.86 97 1004.2
20260507020604 15 184 1.6 6.4 0.00 0.86 0.86 98 1004.3
20260507020004 15 185 1.6 6.4 0.00 0.86 0.86 98 1004.5
20260507015403 15 184 0.0 9.7 0.00 0.86 0.86 98 1004.5
20260507014803 15 184 0.0 9.7 0.00 0.86 0.86 98 1004.5
20260507014204 15 184 1.6 11.3 0.00 0.86 0.86 98 1004.5
20260507013603 15 184 1.6 11.3 0.00 0.86 0.86 98 1004.6
20260507013003 15 184 1.6 11.3 0.00 0.86 0.86 98 1004.5
20260507012404 15 184 1.6 11.3 0.00 0.86 0.86 98 1004.6
20260507011804 15 184 1.6 9.7 0.00 0.86 0.86 98 1004.5
20260507011203 15 184 0.0 9.7 0.00 0.86 0.86 98 1004.7
20260507010603 15 184 1.6 12.9 0.00 0.86 0.86 98 1004.5
20260507010004 15 184 1.6 12.9 0.00 0.86 0.86 98 1004.7
20260507005403 15 184 1.6 9.7 0.00 0.86 0.86 98 1004.5
20260507004803 15 184 1.6 12.9 0.00 0.86 0.86 98 1004.5
20260507004203 15 184 0.0 12.9 0.03 0.86 0.86 98 1004.6
20260507003604 15 184 0.0 1.6 0.05 0.86 0.86 98 1004.6
20260507003004 15 184 0.0 6.4 0.13 0.86 0.86 98 1004.6
20260507002403 15 184 1.6 8.0 0.13 0.86 0.86 97 1004.5
20260507001804 15 184 0.0 8.0 0.15 0.86 0.86 97 1004.5
20260507001203 15 184 0.0 8.0 0.18 0.86 0.86 97 1004.5
20260507000603 15 185 3.2 12.9 0.18 0.86 0.86 97 1004.4
20260507000003 15 186 3.2 12.9 0.23 0.86 0.86 97 1004.3
20260506235404 15 188 3.2 19.3 0.25 0.86 0.86 97 1004.2
20260506234803 15 187 3.2 19.3 0.28 0.86 0.86 97 1004.2
20260506234203 15 187 3.2 14.5 0.28 0.84 0.84 97 1004.3
20260506233603 15 186 3.2 19.3 0.28 0.81 0.81 97 1004.3
20260506233004 15 185 3.2 19.3 0.20 0.74 0.74 97 1004.3
20260506232403 15 184 3.2 12.9 0.25 0.74 0.74 97 1004.5
20260506231803 15 184 3.2 14.5 0.25 0.71 0.71 97 1004.5
20260506231204 15 184 3.2 17.7 0.25 0.69 0.69 97 1004.6
20260506230604 15 184 4.8 17.7 0.25 0.69 0.69 97 1004.5
20260506230003 15 185 3.2 17.7 0.20 0.64 0.64 97 1004.6
20260506225403 15 186 3.2 16.1 0.18 0.61 0.61 97 1004.7
20260506224804 15 187 1.6 11.3 0.15 0.58 0.58 97 1004.7
20260506224204 15 187 1.6 8.0 0.15 0.56 0.56 96 1004.7
20260506223603 15 186 3.2 12.9 0.13 0.53 0.53 96 1004.8
20260506223003 15 185 4.8 12.9 0.13 0.53 0.53 96 1004.9
20260506222404 15 183 3.2 12.9 0.08 0.48 0.48 97 1004.9
20260506221803 15 182 3.2 16.1 0.08 0.46 0.46 97 1005.0
20260506221203 15 181 3.2 16.1 0.05 0.43 0.43 97 1005.0
20260506220604 15 181 1.6 9.7 0.08 0.43 0.43 97 1005.1
20260506220004 15 181 1.6 9.7 0.10 0.43 0.43 96 1005.0
20260506215403 15 181 1.6 9.7 0.10 0.43 0.43 96 1005.1
20260506214803 15 181 1.6 11.3 0.10 0.41 0.41 96 1005.2
20260506214204 15 181 1.6 11.3 0.10 0.41 0.41 96 1005.2
20260506213603 15 181 0.0 6.4 0.13 0.41 0.41 96 1005.3
20260506213003 15 181 1.6 6.4 0.15 0.41 0.41 96 1005.5
20260506212404 15 181 1.6 11.3 0.20 0.41 0.41 95 1005.5
20260506211804 15 181 1.6 11.3 0.23 0.38 0.38 95 1005.5
20260506211203 15 181 3.2 9.7 0.28 0.38 0.38 95 1005.5
20260506210603 15 183 3.2 12.9 0.25 0.36 0.36 94 1005.7
20260506210004 15 183 3.2 12.9 0.23 0.33 0.33 94 1005.7
20260506205404 15 183 3.2 12.9 0.25 0.33 0.33 94 1005.6
20260506204803 15 179 4.8 17.7 0.23 0.30 0.30 94 1005.4
20260506204203 15 177 6.4 17.7 0.25 0.30 0.30 93 1005.5
20260506203604 15 191 3.2 17.7 0.23 0.28 0.28 92 1005.6
20260506203004 15 193 4.8 17.7 0.23 0.25 0.25 92 1005.6
20260506202404 15 189 6.4 17.7 0.15 0.18 0.18 90 1005.6
20260506201803 16 187 4.8 14.5 0.15 0.15 0.15 90 1005.6
20260506201204 16 186 3.2 17.7 0.10 0.10 0.10 89 1005.6
20260506200603 16 186 3.2 11.3 0.10 0.10 0.10 89 1005.3
20260506200003 16 187 3.2 11.3 0.08 0.08 0.08 88 1005.4
20260506195404 16 187 3.2 12.9 0.08 0.08 0.08 88 1005.4
20260506194804 16 187 3.2 12.9 0.08 0.08 0.08 88 1005.4
20260506194203 16 187 3.2 11.3 0.05 0.05 0.05 87 1005.4
20260506193603 16 187 3.2 11.3 0.05 19.35 0.05 86 1005.5
20260506193004 17 187 1.6 11.3 0.03 19.33 0.03 85 1005.7
20260506192403 17 186 3.2 16.1 0.03 19.33 0.03 85 1005.7
20260506191803 17 186 4.8 16.1 0.00 19.30 0.00 84 1005.6
20260506191203 17 186 4.8 17.7 0.00 19.30 0.00 81 1005.6
20260506190604 17 185 4.8 17.7 0.00 19.30 0.00 80 1005.6
20260506190004 17 185 4.8 16.1 0.00 19.30 0.00 80 1005.5
20260506185403 17 183 6.4 17.7 0.00 19.30 0.00 80 1005.5
20260506184804 17 175 8.0 20.9 0.00 19.30 0.00 79 1005.4
20260506184203 17 181 8.0 20.9 0.00 19.30 0.00 78 1005.3
20260506183604 17 188 8.0 19.3 0.00 19.30 0.00 76 1005.4
20260506183003 18 185 9.7 19.3 0.00 19.30 0.00 74 1005.4
20260506182404 18 176 9.7 20.9 0.00 19.30 0.00 74 1005.4
20260506181803 19 178 11.3 24.1 0.00 19.30 0.00 72 1005.5
20260506181203 18 179 11.3 24.1 0.00 19.30 0.00 72 1005.7
20260506180604 18 184 9.7 25.7 0.00 19.30 0.00 72 1005.6
20260506180005 18 184 11.3 27.4 0.00 19.30 0.00 72 1005.8
20260506175403 18 177 9.7 27.4 0.00 19.30 0.00 72 1005.8
20260506174803 19 165 9.7 30.6 0.00 19.30 0.00 71 1005.8
20260506174204 19 178 11.3 30.6 0.00 19.30 0.00 71 1005.8
20260506173603 19 189 11.3 25.7 0.00 19.30 0.00 71 1005.8
20260506173003 19 183 9.7 24.1 0.00 19.30 0.00 71 1005.9
20260506172404 19 181 9.7 25.7 0.00 19.30 0.00 72 1005.8
20260506171803 19 183 9.7 20.9 0.00 19.30 0.00 72 1005.8
20260506171203 18 191 9.7 20.9 0.00 19.30 0.00 73 1006.0
20260506170604 18 187 9.7 20.9 0.00 19.30 0.00 73 1006.0
20260506170004 18 181 8.0 19.3 0.00 19.30 0.00 73 1005.9
20260506165403 18 179 8.0 27.4 0.00 19.30 0.00 72 1006.1
20260506164804 18 170 6.4 17.7 0.00 19.30 0.00 72 1006.3
20260506164204 18 165 6.4 17.7 0.00 19.30 0.00 72 1006.2
20260506163603 18 163 6.4 17.7 0.00 19.30 0.00 72 1006.2
20260506163003 19 155 6.4 17.7 0.00 19.30 0.00 71 1006.4
20260506162404 19 153 6.4 19.3 0.00 19.30 0.00 71 1006.5
20260506161804 19 169 4.8 19.3 0.00 19.30 0.00 71 1006.7
20260506161203 19 181 3.2 14.5 0.00 19.30 0.00 70 1006.9
20260506160603 20 186 3.2 11.3 0.00 19.30 0.00 68 1007.1
20260506160004 21 188 3.2 14.5 0.00 19.30 0.00 68 1007.1
20260506155403 21 188 4.8 14.5 0.00 19.30 0.00 69 1007.3
20260506154803 21 188 4.8 12.9 0.00 19.30 0.00 69 1007.4
20260506154203 21 186 6.4 17.7 0.00 19.30 0.00 68 1007.4
20260506153604 21 185 6.4 17.7 0.00 19.30 0.00 69 1007.4
20260506153004 21 186 6.4 17.7 0.00 19.30 0.00 68 1007.7
20260506152403 21 181 6.4 17.7 0.00 19.30 0.00 68 1007.5
20260506151803 21 187 8.0 19.3 0.00 19.30 0.00 68 1007.5
20260506151204 21 196 8.0 19.3 0.00 19.30 0.00 68 1007.8
20260506150603 21 201 6.4 20.9 0.00 19.30 0.00 69 1007.8
20260506150003 21 200 8.0 20.9 0.00 19.30 0.00 68 1007.7
20260506145404 21 193 6.4 17.7 0.00 19.30 0.00 69 1007.6
20260506144804 21 186 6.4 22.5 0.00 19.30 0.00 69 1007.7
20260506144203 21 187 6.4 22.5 0.00 19.30 0.00 69 1007.6
20260506143603 21 183 6.4 22.5 0.00 19.30 0.00 71 1007.6
20260506143004 20 190 8.0 22.5 0.00 19.30 0.00 70 1007.5
20260506142403 20 193 8.0 19.3 0.00 19.30 0.00 70 1007.4
20260506141803 20 185 8.0 24.1 0.00 19.30 0.00 72 1007.5
20260506141203 20 191 8.0 24.1 0.00 19.30 0.00 73 1007.6
20260506140604 20 195 8.0 17.7 0.00 19.30 0.00 73 1007.7
20260506140004 19 193 8.0 19.3 0.00 19.30 0.00 73 1007.7
20260506135403 19 196 4.8 22.5 0.00 19.30 0.00 74 1007.7
20260506134804 19 197 6.4 16.1 0.00 19.30 0.00 74 1008.0
20260506134204 19 195 6.4 19.3 0.00 19.30 0.00 74 1008.2
20260506133603 19 199 4.8 19.3 0.00 19.30 0.00 75 1008.1
20260506133003 18 198 9.7 25.7 0.00 19.30 0.00 75 1008.1
20260506132404 18 193 8.0 25.7 0.00 19.30 0.00 75 1008.1
20260506131804 18 190 6.4 25.7 0.00 19.30 0.00 75 1008.0
20260506131203 18 192 4.8 16.1 0.00 19.30 0.00 75 1008.0
20260506130603 18 192 3.2 16.1 0.00 19.30 0.00 75 1008.2
20260506130004 18 192 4.8 17.7 0.00 19.30 0.00 76 1008.1
20260506125404 18 191 6.4 17.7 0.00 19.30 0.00 76 1007.9
20260506124803 18 190 6.4 17.7 0.00 19.30 0.00 76 1008.0
20260506124204 18 191 6.4 17.7 0.00 19.30 0.00 76 1008.1
20260506123604 18 192 8.0 19.3 0.00 19.30 0.00 76 1008.4
20260506123003 18 191 8.0 17.7 0.00 19.30 0.00 77 1008.4
20260506122403 18 190 8.0 19.3 0.00 19.30 0.00 77 1008.2
20260506121804 17 192 6.4 22.5 0.00 19.30 0.00 78 1008.2
20260506121203 17 190 4.8 16.1 0.00 19.30 0.00 79 1008.3
20260506120603 17 189 4.8 11.3 0.00 19.30 0.00 79 1008.4
20260506120003 17 191 4.8 16.1 0.00 19.30 0.00 79 1008.4
20260506115404 17 193 4.8 16.1 0.00 19.30 0.00 79 1008.5
20260506114804 17 192 4.8 16.1 0.00 19.30 0.00 79 1008.5
20260506114203 17 193 4.8 16.1 0.00 19.30 0.00 79 1008.7
20260506113604 17 193 4.8 16.1 0.00 19.30 0.00 79 1008.6
20260506113004 17 193 4.8 16.1 0.00 19.30 0.00 79 1008.5
20260506112403 17 193 3.2 16.1 0.00 19.30 0.00 79 1008.6
20260506111803 17 193 3.2 16.1 0.00 19.30 0.00 79 1008.5
20260506111204 17 192 3.2 14.5 0.00 19.30 0.00 80 1008.6
20260506110603 16 192 4.8 16.1 0.00 19.30 0.00 80 1008.7
20260506110003 16 192 4.8 16.1 0.00 19.30 0.00 80 1008.7
20260506105403 16 191 3.2 14.5 0.00 19.30 0.00 80 1008.7
20260506104804 16 192 3.2 14.5 0.00 19.30 0.00 80 1008.6
20260506104203 16 192 3.2 14.5 0.00 19.30 0.00 79 1008.7
20260506103603 16 192 3.2 16.1 0.00 19.30 0.00 79 1008.7
20260506103003 16 192 1.6 16.1 0.00 19.30 0.00 79 1008.7
20260506102404 16 192 1.6 8.0 0.00 19.30 0.00 79 1008.7
20260506101803 16 193 3.2 12.9 0.00 19.30 0.00 79 1008.7
20260506101203 16 193 3.2 14.5 0.00 19.30 0.00 78 1008.7
20260506100604 16 193 3.2 11.3 0.00 19.30 0.00 79 1008.6
20260506100004 16 193 1.6 9.7 0.00 19.30 0.00 78 1008.6
20260506095403 16 193 3.2 9.7 0.00 19.30 0.00 78 1008.5
20260506094804 16 193 3.2 16.1 0.00 19.30 0.00 78 1008.6
20260506094204 16 193 1.6 16.1 0.00 19.30 0.00 78 1008.7
20260506093603 16 194 1.6 8.0 0.00 19.30 0.00 78 1008.7
20260506093003 16 194 1.6 8.0 0.00 19.30 0.00 78 1008.6
20260506092404 16 195 3.2 14.5 0.00 19.30 0.00 78 1008.6
20260506091804 16 195 3.2 14.5 0.00 19.30 0.00 77 1008.5
20260506091203 17 192 4.8 16.1 0.00 19.30 0.00 77 1008.5
20260506090603 17 193 3.2 16.1 0.00 19.30 0.00 76 1008.4
20260506090004 17 186 3.2 17.7 0.00 19.30 0.00 76 1008.4